Regional Weather Roundup
Issued by NWS Bismarck, ND

Home | Current Version | Previous Version | Text Only | Print | Product List | Glossary On
Versions: 1 2 3 4 5 6 7 8 9 10 11 12 13 14 15 16 17 18 19 20 21 22 23 24 25 26 27 28 29 30 31 32 33 34 35 36 37 38 39 40 41 42 43 44 45 46 47 48 49 50
000
ASUS43 KBIS 030010
RWRBIS

NWR BROADCAST TEXT
NATIONAL WEATHER SERVICE BISMARCK ND
700 PM CDT TUE JUN 02 2015

NOTE: "FAIR" INDICATES FEW OR NO CLOUDS BELOW 12,000 FEET WITH NO
SIGNIFICANT WEATHER AND/OR OBSTRUCTIONS TO VISIBILITY.


CITY           SKY/WX    TMP DP  RH WIND       PRES   REMARKS
WILLISTON      RAIN      55  53  93 N23G31    29.84R FOG
MINOT          CLOUDY    61  57  87 NE15      29.76S
MINOT AFB      CLOUDY    60  60 100 E16       29.76S
BISMARCK       CLOUDY    73  66  78 NE3       29.73R
DICKINSON      MOSUNNY   70  54  56 W20       29.76F
GARRISON         N/A     69  61  75 E13       29.74R
HETTINGER ARPT SUNNY     73  55  53 NW17      29.79S
JAMESTOWN      MOSUNNY   76  64  66 SE7       29.69F
BEACH          CLOUDY    57  55  94 NW22G29   29.85S
CARRINGTON     LGT RAIN  64  64 100 NE12      29.75S
CROSBY         LGT RAIN  54  54 100 N14       29.90R
HARVEY         CLOUDY    64  64 100 NE15      29.75S
HAZEN          FAIR      72  63  73 NE7       29.73F
LINTON         FAIR      75  70  83 N5        29.70S
MANDAN         FAIR      73  66  78 E6        29.73F
OAKES            N/A     81  66  61 S12       29.68S
STANLEY        MOCLDY    55  55 100 NE15G21   29.81R
$$

CITY           SKY/WX    TMP DP  RH WIND       PRES   REMARKS
GRAND FORKS    CLOUDY    68  61  78 NE6       29.75F
GRAND FORKS AF PTSUNNY   66  61  81 N8        29.76F
DEVILS LAKE    CLOUDY    63  55  77 E14G20    29.77S
FARGO          CLOUDY    79  63  57 SE8       29.72F
CANDO          CLOUDY    61  59  94 E12       29.80F
CAVALIER       CLOUDY    63  63 100 NE7       29.81S
GRAFTON        CLOUDY    61  61 100 NE8       29.80S THUNDER
LANGDON        CLOUDY    61  61 100 NE13      29.82F FOG
ROLLA          CLOUDY    57  57 100 NE13      29.84F
WALHALLA       FAIR      63  63 100 MISG      29.82S
$$

CITY           SKY/WX    TMP DP  RH WIND       PRES   REMARKS
ABERDEEN       MOSUNNY   84  64  50 S16       29.66F
MOBRIDGE       MOSUNNY   86  65  49 N8        29.67S
BUFFALO          N/A     75  54  47 NW22G29   29.76R
RAPID CITY     CLOUDY    71  63  75 N3        29.83R THUNDER
GLASGOW        CLOUDY    61  51  70 NE6       29.90S
SIDNEY         CLOUDY    57  52  82 N20G29    29.84R
WOLF POINT     CLOUDY    64  54  69 NE9       29.89S
GLENDIVE       CLOUDY    57  52  82 N23       29.87R
MILES CITY     CLOUDY    61  53  75 N13       29.88S
BAKER          PTSUNNY   62  53  72 NW20G30   29.86R
$$

CITY           SKY/WX    TMP DP  RH WIND       PRES   REMARKS
BILLINGS       MOSUNNY   68  54  60 E16       29.87S
GREAT FALLS    CLOUDY    59  50  72 NE8       29.91R
REGINA         CLOUDY    63  34  34 NE9       29.93S
$$




USA.gov is the U.S. government's official web portal to all federal, state and local government web resources and services.